Location: Stara Lesna
(49.1528°N, 20.2911°E)
Time: 18:23:13
(UTC+02:00)

USA 215 - Pass Details

Date: 13 July 2020
Orbit: 1102 x 1106 km, 123.0° (Epoch: 08 August)

Event Time Altitude Azimuth Distance (km) Brightness Sun altitude
Rises 02:31:35 0° 71° (ENE) 3,925 6.9 -15.2°
Reaches altitude 10° 02:34:10 10° 66° (ENE) 2,966 6.3 -15.0°
Maximum altitude 02:40:19 45° 356° (N) 1,459 4.3 -14.5°
Drops below altitude 10° 02:46:28 10° 286° (WNW) 2,964 5.4 -14.1°
Sets 02:49:02 0° 281° (W) 3,921 6.0 -13.8°
